Wind_Speed
56 57 57 57 57 57 56 56 55 54 54 53 53 52 51 49 46 44 41 35 29 28 31 33 31 25 24 28 31 33 37 37 35 33 33 33 33 35 36 35 35 34 35 37 44 50 48 43 40 38 37 35 33 35 36 33 33 37 41 42 39 38 43 42 39 42 44 45 47 47 46 47 49 50 52 50 49 50 51 51 50 48 46 44 42
58 58 58 57 57 57 57 57 56 55 54 54 54 53 52 49 45 42 39 33 27 28 33 36 33 29 29 32 34 38 43 40 38 37 34 32 33 35 36 36 37 38 36 36 39 45 46 42 38 37 36 36 34 35 35 32 35 38 38 36 33 35 39 39 37 39 41 42 43 44 45 48 51 54 53 52 51 51 50 48 46 43 42 40 38
59 59 59 58 59 59 58 58 57 56 55 55 55 53 52 50 46 42 37 31 26 30 38 39 36 35 36 37 37 41 45 44 42 40 35 32 34 38 39 39 40 40 38 37 37 40 42 39 36 36 38 37 35 35 35 34 36 37 35 33 32 35 39 42 40 38 39 41 43 44 48 52 54 54 52 51 50 49 47 44 42 40 40 39 37
60 60 59 59 59 60 60 60 58 56 56 56 54 53 51 50 47 42 36 28 25 33 42 40 37 38 37 37 39 41 43 44 44 42 38 36 37 42 44 42 42 42 38 37 38 39 39 36 34 36 39 37 35 36 37 37 37 36 34 34 34 35 37 38 38 36 37 40 43 46 52 55 51 48 47 48 48 47 44 42 40 39 39 38 36
61 61 60 60 60 60 61 60 59 57 56 56 55 52 51 49 46 42 34 26 25 37 45 42 39 40 38 36 38 39 40 42 43 42 42 42 43 44 45 42 42 39 34 32 34 36 36 35 35 37 38 36 35 36 38 39 39 35 34 35 36 34 31 31 32 34 36 40 43 46 50 49 43 40 43 44 43 41 38 36 36 36 36 35 34
62 61 61 61 61 62 62 61 60 58 57 57 55 52 50 48 46 41 32 23 27 40 46 43 39 39 39 37 35 35 37 41 43 43 42 43 44 45 44 43 40 36 33 33 34 35 37 38 38 37 36 36 36 37 38 38 38 34 32 35 36 33 29 28 31 34 39 43 44 43 42 40 37 37 38 38 35 33 31 30 31 31 31 31 30
63 62 63 63 63 63 62 61 60 59 58 57 54 52 50 48 45 40 30 21 31 43 45 42 39 37 37 38 36 34 35 39 43 44 42 41 43 44 46 46 43 39 39 39 40 40 41 42 40 40 39 38 39 39 37 37 36 33 30 32 35 34 32 33 35 39 44 47 46 41 37 35 34 34 33 31 29 26 24 24 24 23 22 21 21
64 64 64 64 64 64 63 62 61 60 59 57 54 51 49 47 44 39 28 21 33 44 44 41 40 38 37 39 40 39 38 39 41 43 42 43 42 43 48 52 49 46 47 47 45 44 44 44 44 44 43 42 41 40 38 37 36 34 30 31 35 35 34 37 41 44 47 47 44 40 36 34 34 32 30 27 24 23 21 20 18 16 16 16 17
65 65 65 65 65 65 64 63 62 61 59 58 55 51 48 46 43 38 27 22 35 44 44 41 41 40 40 42 43 43 43 41 42 44 44 43 42 43 48 53 54 52 52 51 48 46 47 47 46 46 47 46 44 42 40 39 37 36 34 35 37 36 36 38 40 42 43 42 41 39 36 34 33 30 27 25 24 23 23 20 18 17 18 18 18
66 66 66 66 66 66 66 65 63 62 60 58 55 51 47 44 42 38 27 24 36 45 45 43 43 43 43 44 45 45 44 41 42 44 45 44 42 41 42 47 53 54 54 53 50 48 48 47 46 46 47 47 45 43 42 40 39 39 39 38 39 39 39 39 38 39 39 38 38 38 35 33 33 30 27 26 26 26 26 24 22 22 22 22 22
66 67 67 67 67 67 67 66 64 63 61 59 56 51 46 43 41 38 29 25 37 47 48 46 46 48 46 45 46 49 46 41 40 43 47 47 43 40 41 43 47 49 52 53 52 50 49 48 46 46 47 47 46 44 42 40 41 42 41 40 39 40 42 41 38 38 39 38 39 39 37 36 36 33 30 29 29 30 30 28 27 26 25 25 25
68 68 68 68 68 68 68 66 65 64 62 60 57 51 46 42 41 38 31 28 39 50 53 49 49 51 51 47 47 50 46 42 41 44 49 50 46 46 51 50 48 48 49 52 54 52 49 47 46 47 48 47 46 45 43 41 43 44 43 41 40 41 43 44 42 39 39 39 41 42 42 41 39 37 36 34 33 33 32 31 31 29 27 27 26
69 69 69 69 69 68 67 66 66 65 64 62 59 53 47 42 40 39 33 30 42 54 57 53 51 53 55 51 49 50 46 42 42 44 48 51 50 51 54 51 49 51 51 51 53 53 50 47 47 48 49 48 46 46 44 43 44 45 45 44 43 43 44 45 45 42 40 41 43 44 46 46 44 43 42 41 38 35 33 32 32 31 30 31 30
70 70 70 69 69 68 68 67 67 66 64 63 60 56 50 43 39 39 36 33 43 57 61 57 53 54 57 55 52 51 50 47 45 44 47 51 51 50 50 48 46 49 51 51 52 53 53 52 52 51 50 49 47 46 45 46 46 46 46 46 45 45 45 46 46 45 43 44 45 46 47 47 45 45 45 44 41 38 35 34 35 35 35 36 35
70 70 70 70 70 69 69 68 67 66 65 63 62 59 54 46 40 39 39 36 44 59 65 61 57 56 59 59 55 53 55 54 51 49 49 52 52 49 48 47 45 46 49 50 50 52 55 56 55 54 52 51 50 49 48 49 49 48 48 47 47 47 47 47 48 48 48 48 48 49 49 48 46 46 47 46 44 42 42 40 40 40 39 39 40
70 71 71 71 71 70 70 69 68 67 66 64 63 61 58 51 43 39 41 39 44 59 67 66 62 60 61 62 59 56 57 59 59 56 54 55 57 55 51 47 47 49 51 52 52 54 56 56 56 54 52 51 52 52 51 52 52 50 50 50 50 49 48 49 50 51 51 51 51 52 52 51 49 48 49 50 49 48 48 46 45 45 44 43 43
72 72 72 72 72 71 71 70 69 68 67 65 64 63 61 56 48 41 41 42 44 57 69 70 67 65 64 64 62 59 58 60 62 63 62 61 62 62 59 54 51 51 53 55 56 57 58 58 57 55 52 52 54 54 53 54 54 54 53 53 52 50 49 49 51 52 53 54 54 55 55 54 53 52 51 52 52 52 51 50 50 50 48 46 46
73 73 73 73 73 72 72 71 70 69 68 67 67 65 63 60 53 44 42 44 46 54 68 73 71 69 69 68 65 62 60 61 64 66 67 68 67 67 66 64 60 57 56 57 58 59 61 60 58 57 56 57 58 56 54 55 56 57 57 55 54 52 51 50 51 53 55 56 56 56 57 56 56 55 55 55 55 55 55 54 54 54 52 50 49
74 74 74 74 74 74 73 73 72 71 70 70 69 69 66 62 56 47 43 45 47 52 64 75 76 73 72 71 69 66 64 63 65 67 69 70 71 71 71 71 69 66 64 62 61 61 64 63 61 59 59 61 61 59 57 57 57 59 60 59 57 56 54 53 54 55 57 58 58 58 59 59 59 58 58 58 58 58 59 58 58 58 57 55 53
76 76 76 76 76 76 75 75 74 73 73 73 73 71 68 63 57 50 45 45 49 53 60 72 79 77 75 74 74 72 69 68 68 69 70 71 71 72 72 73 72 71 70 69 66 65 66 66 64 62 62 62 62 62 62 61 60 61 63 62 61 59 58 57 58 58 59 60 61 61 61 61 61 61 61 61 60 61 61 62 62 62 62 60 58
77 77 77 77 77 77 77 77 77 77 77 76 75 72 68 62 57 52 48 46 49 54 59 68 78 81 79 77 77 76 74 73 72 72 73 73 73 72 72 72 72 71 71 70 67 67 68 68 65 63 63 64 63 64 65 66 65 65 65 65 65 63 62 61 61 61 62 62 62 63 63 63 64 64 64 64 63 63 63 64 65 66 65 65 63
79 79 79 79 79 80 80 80 80 80 78 76 73 70 66 62 58 55 52 49 49 54 60 66 74 81 82 80 79 79 78 77 76 75 75 74 74 74 73 73 73 72 71 69 68 69 71 70 66 65 65 65 65 67 69 69 69 69 69 69 68 67 67 66 65 64 64 64 65 65 65 66 66 67 68 67 67 66 66 66 66 67 67 68 67
81 81 81 82 82 82 82 81 80 78 76 73 71 68 66 63 61 59 56 54 51 53 60 67 73 80 83 82 81 81 81 80 80 79 78 77 76 75 75 75 75 75 74 72 71 72 72 71 69 69 69 68 69 70 72 72 72 72 73 72 71 71 72 71 69 67 66 66 67 67 68 69 69 69 70 70 70 69 69 69 69 69 69 70 70
83 83 83 82 82 81 80 79 77 76 74 72 71 69 68 67 65 63 61 59 56 55 58 66 73 79 82 83 82 81 82 82 82 82 81 80 79 77 76 75 75 76 76 75 75 75 74 72 72 72 72 72 73 74 75 75 75 75 75 75 74 74 74 74 72 70 69 68 68 69 70 71 71 72 72 72 72 72 72 72 72 72 72 71 71
84 83 82 81 79 78 77 76 76 76 75 73 72 72 71 70 69 67 66 63 61 58 58 63 71 78 83 84 85 83 83 83 84 84 83 82 81 80 78 77 76 76 77 77 77 76 76 75 75 75 75 75 76 78 78 78 78 78 77 77 77 77 76 76 75 73 71 70 70 70 71 72 73 74 74 75 75 75 75 75 74 74 73 71 70
81 81 80 79 79 78 77 76 76 76 75 74 73 72 72 72 71 70 69 67 65 63 61 62 68 76 83 85 86 86 85 85 86 87 86 85 84 83 81 80 78 78 78 78 78 78 78 78 77 78 78 78 79 81 82 82 81 81 80 79 79 79 78 77 76 74 73 72 72 73 73 74 75 76 77 78 78 77 77 76 75 74 72 70 70
80 79 79 78 78 77 76 75 74 74 73 72 71 70 70 70 70 70 70 69 67 66 64 63 65 72 80 86 88 88 87 86 86 88 89 88 87 86 84 83 82 82 81 81 81 81 81 81 81 81 81 80 81 82 84 84 83 83 82 80 79 80 80 79 77 76 75 75 75 75 76 77 78 79 80 80 79 78 77 77 75 73 71 71 71
77 76 75 75 73 72 72 71 70 69 69 69 69 68 67 67 68 69 69 69 68 67 66 65 65 69 76 84 88 90 89 88 87 88 89 90 89 88 87 86 85 84 84 84 84 83 83 83 83 83 83 82 81 82 83 84 83 83 82 81 80 80 80 79 78 78 77 76 75 75 75 75 75 77 78 79 78 77 76 76 75 73 73 74 76
72 71 71 70 69 68 67 66 66 65 65 66 67 67 66 66 66 67 68 68 69 68 67 67 67 68 72 79 86 91 91 91 90 89 89 90 91 91 90 88 87 86 86 86 86 86 85 85 84 84 84 83 82 82 82 82 82 82 81 81 80 80 79 78 78 78 77 76 75 73 73 73 75 76 78 79 80 79 78 78 77 77 77 79 80
67 66 65 65 64 63 62 61 60 60 60 60 62 63 64 64 64 65 66 67 68 69 69 68 68 69 71 75 82 88 93 94 93 92 92 91 92 92 92 91 90 89 89 88 88 88 87 86 86 85 85 84 83 83 82 83 83 83 82 82 81 81 80 79 78 78 77 77 76 75 75 76 77 78 78 80 81 81 81 82 82 83 83 84 85
61 60 60 59 58 58 58 57 56 56 55 55 56 57 59 60 62 62 63 65 67 69 70 70 69 69 70 74 79 85 91 95 96 96 95 94 94 94 94 93 93 92 92 91 90 89 89 88 88 87 86 86 85 85 85 85 85 85 85 84 83 82 82 81 81 80 79 78 78 78 79 80 81 80 81 82 83 84 84 86 87 88 89 90 90
57 56 56 56 55 54 54 54 54 53 53 53 53 54 54 56 58 59 60 62 64 66 68 70 71 70 70 72 76 81 87 92 97 99 99 98 97 96 96 95 95 95 95 94 93 92 91 91 90 90 89 88 87 87 86 86 87 87 87 86 86 85 85 84 83 83 83 81 81 81 82 83 84 84 84 85 86 87 88 89 91 92 93 94 95
54 54 54 54 53 53 52 52 51 50 50 51 51 52 52 53 55 56 58 59 61 63 65 67 69 71 71 71 73 77 82 88 94 98 101 102 101 100 99 98 97 96 96 96 96 96 94 93 93 92 92 91 90 89 88 87 87 88 88 88 88 88 88 87 87 87 86 86 85 85 86 86 87 88 88 88 89 90 91 93 94 95 96 97 97
52 52 52 52 52 52 52 51 50 49 47 47 48 49 50 51 52 54 55 57 58 59 62 64 66 68 70 72 72 74 77 82 88 94 99 103 104 104 103 101 100 99 98 98 98 98 98 97 96 95 95 94 93 92 90 89 88 88 89 89 90 90 90 90 90 90 90 89 89 89 90 91 91 91 92 92 93 94 95 96 97 98 99 99 100
51 51 50 50 50 50 51 51 50 49 48 47 47 47 47 47 48 50 52 55 56 57 59 61 63 65 67 70 71 73 74 77 81 86 92 98 103 106 107 106 104 102 101 100 100 100 100 100 99 99 98 97 96 95 94 92 91 89 89 89 90 91 91 91 91 92 92 92 92 92 93 94 95 95 95 96 97 98 99 100 101 102 102 102 103
51 50 49 47 46 46 47 47 48 49 48 47 47 46 46 45 45 46 48 51 54 56 57 59 60 62 64 66 68 71 72 74 76 80 85 91 96 102 106 108 108 107 105 104 102 102 102 102 102 102 102 101 100 99 98 96 95 94 92 92 91 92 93 93 93 94 94 95 95 95 96 96 97 97 98 99 100 101 102 104 105 105 106 105 106
49 49 48 46 45 43 42 42 43 45 46 46 46 46 45 44 43 43 44 47 50 52 55 57 59 60 61 63 65 68 70 72 74 76 79 84 89 94 99 104 108 110 110 108 106 104 103 103 104 104 104 104 104 104 103 101 100 98 97 96 95 95 95 96 96 97 97 98 98 98 99 99 100 100 101 101 102 104 105 106 107 108 108 108 108
47 46 46 45 44 43 42 40 39 40 41 42 43 44 44 43 43 42 42 44 46 48 51 54 57 59 60 61 62 64 67 69 71 73 75 78 82 87 92 97 102 107 110 112 111 109 107 106 105 105 106 106 106 107 107 107 106 105 103 102 101 99 98 98 99 100 101 102 102 102 103 103 103 103 104 105 105 106 107 108 109 110 110 111 112
44 44 44 44 43 43 43 41 40 39 38 38 39 40 41 41 41 41 41 42 43 45 47 50 53 56 58 60 61 62 63 66 68 70 72 74 77 80 85 90 95 99 104 109 112 113 112 111 109 108 107 107 108 108 109 109 110 110 109 108 107 106 104 103 103 102 103 104 105 106 106 106 107 107 108 108 109 109 110 111 112 112 113 114 115
42 43 43 43 43 43 43 43 41 40 39 38 37 37 38 38 38 39 40 40 41 43 44 46 49 52 54 57 59 61 62 63 65 67 69 71 73 76 79 83 88 92 97 101 106 110 113 114 114 113 111 110 109 109 109 110 111 111 111 112 111 111 111 110 109 108 108 107 107 108 108 109 109 109 109 110 111 112 113 113 114 115 116 116 117
41 42 42 43 43 43 42 42 42 41 40 39 38 37 37 36 36 36 36 37 39 40 42 43 45 48 50 53 56 58 60 61 63 65 67 68 70 72 74 77 81 85 90 94 98 102 107 111 114 115 115 114 113 112 111 111 111 112 112 113 113 113 112 112 112 111 111 111 110 110 110 111 111 111 111 112 112 112 113 114 115 116 116 117 118
40 41 41 42 43 43 43 42 42 41 40 39 38 37 36 36 35 35 34 34 35 37 39 40 42 44 47 49 52 55 57 59 60 62 64 66 67 69 71 73 76 79 83 87 91 95 99 103 107 111 114 116 117 117 115 114 113 113 113 113 114 114 114 114 114 114 113 113 113 113 113 113 113 114 115 115 115 114 114 114 115 115 115 116 116
39 40 41 41 42 42 43 43 43 42 41 40 39 37 36 35 35 34 34 33 33 33 35 37 39 41 44 46 49 51 53 56 58 59 61 64 65 67 68 70 72 75 78 81 85 89 93 96 100 104 108 111 115 117 118 119 118 117 116 115 115 114 114 115 115 116 116 116 116 116 116 116 116 116 117 117 118 118 117 117 117 116 116 116 116
38 39 40 41 41 41 42 42 42 42 41 40 39 38 36 36 35 35 34 33 32 32 32 33 36 38 41 43 45 48 50 52 55 57 59 61 63 65 66 67 69 71 73 76 80 83 87 90 94 97 101 104 108 111 115 117 119 120 120 120 119 118 117 116 116 116 116 117 117 118 119 119 119 119 120 120 120 121 121 121 121 121 121 121 121
38 39 40 40 41 41 41 41 41 41 40 40 39 38 36 35 34 35 35 34 33 32 31 30 31 35 38 40 42 44 46 49 51 54 56 58 60 62 65 66 67 68 70 72 75 78 82 85 88 92 95 98 101 104 107 111 114 117 119 120 121 121 121 120 119 119 118 118 117 118 118 119 120 120 121 122 122 123 123 124 125 125 125 125 125
38 39 39 40 40 41 41 41 41 41 40 40 39 39 37 36 34 33 34 34 33 33 32 30 30 31 34 36 38 40 43 45 48 50 53 55 58 60 62 64 66 67 68 69 71 74 77 80 84 87 90 92 95 97 100 103 106 110 113 115 118 119 121 122 122 122 122 121 121 120 120 119 119 120 120 121 121 122 123 123 124 124 125 125 125
38 39 39 39 40 40 41 41 41 41 41 40 40 39 38 37 36 34 33 33 33 33 32 32 30 30 31 33 35 37 39 42 45 47 49 51 54 57 59 61 63 65 67 68 69 70 73 76 79 82 85 88 90 92 95 97 100 102 105 108 111 113 115 117 119 120 121 122 122 122 122 122 121 121 121 122 122 122 122 123 123 123 124 124 124
38 39 39 39 39 40 40 41 41 40 40 41 40 40 39 38 37 35 34 33 33 33 32 32 32 30 30 30 32 33 35 38 41 44 46 48 50 53 55 58 60 63 65 67 68 69 70 72 74 77 80 83 86 88 91 93 95 97 99 101 104 106 108 110 113 114 116 118 119 120 120 121 121 121 121 121 121 122 122 122 122 122 122 122 122
39 39 39 40 40 40 40 41 41 41 40 40 41 40 40 38 38 36 35 33 32 32 32 32 32 31 30 29 29 31 32 34 37 40 43 45 47 49 51 54 57 59 61 64 66 68 69 70 71 73 75 78 81 84 86 89 91 93 95 97 98 100 102 104 106 108 110 112 113 114 116 116 117 118 118 118 119 119 119 119 119 119 119 119 119
40 40 40 40 40 41 41 41 42 42 41 41 41 40 40 39 38 37 36 34 32 32 32 32 31 31 30 30 29 29 30 31 33 36 39 42 44 46 48 50 52 55 57 60 62 65 67 69 70 71 73 75 77 79 81 84 87 89 91 93 95 97 98 99 101 102 103 105 106 108 109 111 112 113 113 114 115 115 115 116 116 116 116 116 115
41 41 42 42 42 42 42 42 42 42 42 42 42 41 40 40 38 37 36 35 34 32 31 31 31 31 30 29 29 28 29 29 31 33 36 38 41 43 45 46 48 51 53 56 58 61 63 65 67 69 71 73 74 76 78 80 82 84 86 88 91 93 95 96 98 99 100 101 102 103 104 105 106 107 108 109 110 110 111 111 112 112 112 112 112
Wind_Direction
277 279 282 285 288 291 293 296 298 300 302 304 306 307 307 306 303 299 295 288 271 246 223 213 214 220 230 234 235 240 244 240 231 230 236 240 244 248 250 253 258 262 262 255 244 239 242 251 254 248 246 255 268 276 279 280 278 278 279 277 270 262 261 262 258 256 256 259 265 268 270 274 276 278 282 283 283 284 285 286 287 288 288 286 284
277 279 282 284 287 289 292 295 297 299 302 304 306 307 308 307 304 301 298 289 265 232 212 205 203 205 219 227 228 234 240 239 232 235 241 242 244 248 250 254 262 264 261 256 246 238 240 246 244 244 252 261 270 275 275 278 282 282 280 273 260 254 258 262 261 257 253 256 263 265 267 270 274 278 282 285 285 285 286 286 286 286 286 285 281
276 278 281 284 286 288 291 294 296 299 302 304 306 307 309 308 305 303 300 287 257 221 205 203 201 204 213 219 222 231 238 237 234 235 240 242 245 248 250 255 263 265 260 253 244 237 237 239 239 247 260 266 270 275 275 278 285 284 277 268 259 257 261 264 264 258 252 254 260 264 267 270 274 278 281 284 285 286 286 284 283 284 285 282 278
276 278 281 283 285 288 290 293 296 299 301 303 305 307 309 309 306 304 300 284 248 213 203 203 203 206 210 213 218 226 233 234 233 232 235 239 243 247 251 257 262 263 258 249 239 231 230 235 243 254 264 268 270 274 274 278 285 282 271 265 264 264 266 266 264 257 252 254 259 263 267 270 275 280 283 285 286 285 284 282 281 281 281 279 275
276 278 280 282 284 287 289 292 295 297 300 302 304 306 309 308 305 304 299 277 235 208 201 201 203 206 209 212 217 223 226 230 231 231 234 239 243 248 254 258 260 257 247 235 228 227 230 240 251 258 264 268 271 272 272 278 285 279 265 263 267 267 266 265 263 258 256 257 261 265 268 272 279 285 286 287 286 284 282 280 279 279 277 275 271
276 278 280 282 284 286 288 291 294 296 298 301 303 306 308 308 305 304 298 268 223 204 200 201 203 207 211 214 219 223 225 229 231 231 234 239 246 251 255 257 254 244 231 227 232 238 245 252 255 258 262 265 268 270 270 277 284 277 265 264 265 261 255 253 253 253 255 258 262 267 270 275 282 286 286 285 284 283 281 279 277 276 274 272 269
275 277 279 281 283 285 288 290 293 295 297 300 302 305 307 307 305 302 295 257 214 201 199 200 203 208 212 216 220 221 222 225 227 227 229 234 240 246 251 253 250 238 231 236 245 251 255 258 258 260 263 264 266 268 270 276 281 279 274 267 260 253 245 242 243 246 252 259 264 268 270 274 278 282 284 285 283 282 280 277 275 274 273 271 269
275 277 279 281 283 285 287 289 292 293 296 299 301 303 306 306 303 301 290 245 209 200 197 198 202 207 211 216 219 220 221 222 224 224 225 227 232 239 245 247 247 242 238 242 248 253 256 257 259 262 263 262 262 263 269 275 276 278 275 262 255 253 246 241 243 247 252 259 263 265 266 269 273 277 283 283 278 277 276 274 273 271 269 268 268
275 277 279 281 283 285 286 288 290 292 294 297 299 301 304 304 301 298 285 238 207 199 196 196 199 203 208 212 216 219 221 222 224 224 224 224 227 235 242 245 245 243 241 243 246 250 253 255 257 260 260 259 258 261 268 272 271 271 270 263 260 259 252 245 245 248 252 257 260 260 262 266 270 274 277 276 273 273 273 270 268 265 263 264 264
275 277 279 281 282 284 285 287 289 291 293 295 297 298 302 302 299 294 280 236 209 199 195 197 199 200 205 210 213 217 219 220 220 220 219 217 220 228 239 245 246 242 241 242 245 247 250 253 253 255 256 257 258 262 268 269 266 266 268 269 269 266 258 253 251 250 254 258 258 258 259 262 265 269 272 272 271 272 272 269 267 264 262 262 263
276 277 278 280 281 283 285 287 288 290 292 293 294 296 299 300 296 290 276 238 211 200 197 200 201 202 206 209 212 216 218 220 219 218 215 215 217 223 229 237 241 241 240 241 243 245 246 247 249 251 254 256 259 264 265 264 261 262 265 268 271 268 262 259 257 254 254 255 257 258 258 259 263 268 272 273 271 271 271 270 269 267 264 262 262
275 277 278 279 281 283 284 286 287 289 290 291 292 293 296 298 294 287 274 240 213 202 199 201 202 204 207 210 213 216 217 221 225 222 218 218 220 225 231 236 240 240 240 240 240 241 241 244 248 252 254 257 260 261 259 256 256 260 262 264 268 268 264 262 260 257 253 252 255 257 258 259 264 268 272 274 272 270 270 272 271 269 266 265 265
275 276 278 279 280 282 283 285 286 288 289 290 290 291 293 295 291 283 271 243 216 204 202 203 204 205 207 210 214 216 216 220 227 227 223 222 225 230 235 240 241 239 239 239 238 237 239 246 251 254 255 256 257 256 253 251 252 256 259 261 264 266 266 265 262 259 255 252 254 256 258 260 264 267 270 272 272 271 272 275 274 271 269 269 269
275 276 277 279 280 281 282 284 285 286 287 288 289 290 291 292 289 280 269 247 220 208 204 206 206 206 208 212 216 218 217 218 224 226 224 224 228 232 234 237 240 239 238 238 238 238 242 248 251 252 253 253 253 251 250 249 250 252 255 258 260 262 265 266 264 260 256 254 256 258 259 262 264 266 268 270 270 271 274 276 276 274 272 272 272
275 277 278 279 280 281 282 283 284 285 286 286 287 289 289 289 287 277 267 250 225 212 208 208 209 208 210 214 218 221 221 222 223 224 222 221 224 227 229 233 237 239 239 239 240 241 244 247 248 249 250 251 250 249 249 250 251 251 253 255 256 259 262 264 264 261 258 258 260 261 262 264 266 266 268 270 272 274 276 277 277 277 276 275 275
276 277 278 279 280 280 281 282 282 283 284 284 285 287 288 288 285 275 265 253 231 217 212 210 211 211 212 215 219 222 224 225 226 226 224 222 222 223 225 230 234 236 238 240 241 243 244 245 245 246 247 248 249 249 249 250 250 251 253 254 255 258 260 261 261 260 259 259 261 263 265 267 269 269 270 271 273 274 275 276 277 277 277 278 279
276 276 277 278 279 280 280 281 282 282 283 283 284 285 286 286 284 274 262 254 238 222 215 213 213 213 213 215 219 222 225 226 228 229 229 228 226 224 225 229 232 233 235 238 240 242 244 245 245 244 244 245 248 250 249 249 249 250 252 254 256 257 257 257 258 258 259 259 261 263 267 269 270 270 270 271 272 272 272 273 275 275 276 278 278
276 276 277 278 278 279 280 280 281 281 281 282 282 284 284 284 282 274 261 253 244 228 219 216 215 215 215 216 218 221 224 226 228 229 231 233 233 231 229 230 233 234 235 236 239 242 244 245 245 245 244 246 250 252 250 248 249 250 251 253 256 257 256 255 255 256 257 259 261 263 266 267 269 270 270 270 271 271 270 271 272 274 276 276 276
276 277 277 278 278 279 279 279 280 280 280 281 282 283 283 282 279 272 260 252 245 235 225 220 217 217 217 218 219 220 223 226 228 230 231 232 234 235 234 233 234 236 236 238 240 242 244 244 244 245 247 249 251 253 252 251 251 250 251 253 255 257 257 256 255 254 255 257 259 261 263 265 267 268 268 269 270 270 270 270 271 272 274 275 275
276 277 277 278 278 279 279 279 279 280 280 281 282 282 282 280 276 269 260 251 245 239 231 224 220 219 218 220 221 222 224 226 228 229 230 231 232 233 235 235 235 236 237 239 240 242 243 244 245 247 249 250 251 252 252 252 252 252 251 252 254 256 258 258 257 256 256 256 257 258 260 262 263 265 265 266 267 268 269 270 271 272 274 275 276
277 277 278 278 278 279 279 280 280 281 281 281 281 281 279 277 273 267 260 253 245 239 234 229 224 221 220 221 223 225 226 228 229 229 230 231 231 233 234 235 235 235 237 238 238 239 241 243 246 249 250 250 251 251 251 252 253 253 252 253 254 256 258 259 258 258 257 257 257 257 258 259 260 261 262 263 264 265 267 269 271 273 275 276 276
277 278 278 278 279 279 280 280 280 280 280 280 279 278 276 273 270 266 261 255 248 240 235 232 228 225 223 223 225 226 228 230 231 231 230 230 231 232 234 235 236 236 236 237 236 237 239 243 245 246 247 248 249 250 251 251 252 252 252 253 255 257 258 259 259 259 258 257 257 257 257 258 258 259 260 262 263 265 266 268 269 271 273 275 276
278 278 278 279 279 279 279 280 279 279 279 278 277 276 274 272 269 267 263 257 251 244 236 232 230 227 225 225 226 227 229 230 231 232 232 231 231 231 232 234 235 237 237 237 237 237 239 243 244 244 244 245 247 248 248 249 250 250 252 253 255 257 258 259 260 260 259 258 257 257 257 258 259 260 261 262 264 265 266 268 269 271 272 274 276
279 279 279 279 279 279 279 278 278 278 277 276 275 274 273 271 269 267 264 260 254 248 240 234 231 229 227 227 227 228 230 231 231 232 232 232 231 231 232 233 234 236 238 238 238 238 238 240 242 242 242 243 244 245 246 247 248 249 250 252 254 256 258 259 260 260 259 258 257 257 257 258 259 260 261 262 263 265 266 268 269 271 273 275 276
279 279 279 279 279 279 278 277 277 277 276 275 274 273 272 271 269 266 264 261 257 251 245 237 232 230 229 228 228 228 230 231 232 232 233 233 232 232 233 234 234 236 238 239 239 239 238 238 239 241 242 243 244 245 246 246 247 248 249 251 254 256 258 259 260 260 259 258 257 257 257 257 258 260 261 262 263 265 267 268 270 272 274 275 276
280 280 280 280 279 279 278 278 277 276 275 274 273 272 271 269 268 266 263 261 257 253 248 241 235 231 229 229 228 229 230 231 233 233 233 233 233 233 234 234 235 236 237 238 238 239 239 239 240 241 243 244 245 246 247 248 249 250 250 252 253 255 257 258 259 259 258 258 258 258 258 258 260 261 262 263 264 266 267 269 271 273 275 276 276
280 280 280 280 280 279 278 278 277 276 275 274 272 271 269 268 266 265 263 260 257 254 249 244 238 233 230 229 229 229 230 231 233 234 234 233 233 233 234 235 235 236 237 238 238 238 238 239 240 242 243 244 244 246 248 249 251 252 253 253 254 255 256 257 257 257 257 258 258 259 260 261 262 263 264 265 266 268 269 271 274 276 277 276 276
281 281 281 280 280 279 279 278 277 276 275 274 272 270 268 266 265 263 262 260 257 254 250 246 241 235 231 230 230 230 230 231 232 234 235 235 234 233 233 234 235 235 236 237 237 237 238 239 241 243 243 244 245 246 248 250 251 253 254 255 255 255 255 256 256 257 257 257 259 260 261 262 263 264 266 268 269 270 271 274 276 276 276 276 277
282 282 282 282 281 280 279 278 277 275 274 273 272 270 268 266 264 262 261 259 257 255 252 248 243 238 233 231 230 229 230 230 231 233 235 236 236 235 234 233 234 235 235 236 237 237 238 239 241 242 244 244 245 246 248 249 251 252 253 254 254 255 255 255 255 256 257 257 258 259 260 260 261 263 265 268 270 271 272 273 274 275 275 276 277
284 284 284 283 283 282 281 279 278 276 274 272 271 270 268 266 264 262 260 259 257 256 254 251 246 241 236 233 230 230 229 230 230 232 234 235 237 237 236 235 234 234 235 236 236 237 238 239 240 241 243 244 244 245 246 248 249 250 251 252 252 253 254 255 255 255 256 257 258 259 259 260 260 262 264 266 269 270 271 272 273 274 275 276 276
286 286 286 285 285 284 283 282 280 278 276 273 271 269 268 266 265 262 260 258 257 255 254 253 250 246 240 236 233 231 230 230 230 231 232 234 235 237 238 237 236 235 235 235 236 237 238 238 239 240 241 242 243 244 245 246 248 249 250 250 251 251 252 254 254 255 255 256 256 257 259 260 260 261 263 265 267 268 270 271 272 274 275 275 276
289 289 289 288 287 286 284 282 281 279 277 275 273 270 268 266 265 263 261 258 256 255 254 253 252 249 246 241 236 233 232 231 230 230 231 232 233 235 237 238 238 237 236 235 236 237 238 238 239 239 240 241 242 243 244 245 247 248 249 250 250 250 251 252 253 254 255 255 255 256 257 259 260 262 263 264 265 266 268 270 271 273 274 275 276
291 292 292 291 291 290 288 285 283 281 278 276 274 271 269 266 264 263 262 260 257 255 254 253 252 251 249 246 241 237 234 233 232 231 231 231 232 233 235 237 238 239 238 237 236 236 237 238 239 239 239 240 241 242 243 244 246 247 248 249 250 250 251 252 252 253 254 255 256 256 257 258 260 262 263 264 265 266 267 269 270 272 273 274 275
295 295 295 294 294 293 292 291 288 286 283 279 276 273 270 267 264 263 262 261 259 257 255 253 252 251 250 248 246 242 239 236 234 233 233 232 232 233 234 235 236 238 239 239 238 237 237 238 238 239 238 239 240 241 242 243 245 246 248 249 250 251 251 252 253 253 254 255 256 257 258 259 260 261 263 264 265 266 267 269 270 271 273 274 276
298 298 297 296 295 294 293 292 291 290 288 285 282 278 274 270 266 263 261 260 259 258 256 255 253 251 250 249 248 246 243 240 237 236 235 234 234 233 234 234 235 236 238 239 239 239 239 238 238 238 238 238 239 240 241 242 243 245 247 248 250 251 251 252 252 253 254 255 256 257 259 260 261 261 262 263 264 265 267 268 269 271 273 274 275
300 300 299 297 296 294 292 291 291 290 290 288 286 283 279 275 271 266 262 260 258 257 256 255 254 252 251 249 249 248 246 244 241 238 237 236 236 235 235 235 235 236 236 237 238 239 240 240 239 239 239 239 239 239 240 241 242 244 245 247 248 250 251 252 253 253 254 256 257 258 259 260 261 261 262 263 264 265 266 267 269 270 272 273 274
302 302 302 301 299 297 294 292 290 289 289 288 287 286 283 280 276 271 266 262 259 257 255 255 254 253 252 250 249 248 247 246 244 242 239 238 237 236 236 236 236 236 237 237 238 238 239 240 240 240 240 240 239 240 240 241 242 243 244 245 246 248 250 251 253 254 255 256 257 258 259 261 261 262 262 263 264 264 265 266 268 269 271 272 273
304 305 305 305 304 302 300 297 294 291 289 288 287 286 284 282 279 275 271 266 262 259 256 254 253 253 253 252 250 248 248 247 246 245 243 241 239 237 237 237 237 237 237 238 238 238 239 239 240 241 241 241 241 241 241 242 242 243 244 245 246 247 248 249 251 253 254 256 257 258 259 261 262 262 263 263 264 265 265 266 267 269 270 271 273
307 308 308 308 308 308 306 304 302 299 295 292 289 287 286 284 281 279 275 270 266 262 259 256 254 253 252 252 251 250 248 247 247 247 246 244 242 240 238 238 238 238 238 238 239 239 239 239 240 240 241 242 242 242 243 243 243 244 245 246 247 248 248 249 250 251 252 254 256 258 259 260 261 262 263 263 264 265 265 266 267 268 269 270 272
311 312 312 312 312 312 311 310 308 306 303 300 296 293 290 286 283 280 277 274 270 266 262 259 257 254 253 252 252 251 249 248 247 247 247 246 245 243 241 240 239 239 239 239 239 240 240 240 240 241 241 241 242 243 243 244 244 245 246 246 247 248 249 250 250 251 251 252 254 255 257 259 260 261 262 263 264 264 265 266 267 268 269 270 271
315 315 316 316 315 315 314 312 311 310 308 305 302 299 296 293 289 284 279 275 272 269 266 262 259 257 255 253 252 252 251 249 248 247 247 247 246 245 244 242 241 240 239 239 240 240 240 241 241 242 242 242 242 243 243 244 244 245 246 247 248 248 249 250 251 252 252 253 254 254 255 257 258 260 261 262 263 264 265 266 267 268 269 270 271
318 318 318 318 318 317 316 315 314 313 312 310 307 304 302 299 296 291 285 280 275 271 269 265 262 259 257 255 253 252 251 250 249 248 248 248 247 247 246 245 244 242 241 240 240 240 241 241 242 242 243 243 243 243 244 244 245 245 246 246 247 248 249 249 250 251 252 253 254 254 255 256 257 258 260 261 262 264 265 266 267 268 269 270 272
321 321 321 321 320 320 319 318 317 316 315 313 311 309 306 303 300 296 291 287 281 276 271 268 265 262 259 257 255 253 252 251 250 249 248 248 248 248 247 246 245 244 243 242 242 241 241 241 242 242 243 244 244 245 245 245 245 246 246 247 247 248 249 249 250 250 251 252 253 254 255 256 257 257 258 260 261 262 264 265 267 268 269 270 272
324 324 323 323 323 322 321 320 319 318 317 316 314 312 310 308 305 301 298 293 288 282 276 271 268 265 262 259 257 255 253 252 251 250 249 248 248 248 248 248 247 246 245 244 243 243 243 242 242 243 243 244 245 245 246 246 246 247 247 248 248 249 250 250 250 251 251 252 252 253 254 255 256 257 258 259 260 261 263 264 265 267 268 269 270
325 326 326 325 325 324 323 322 321 320 320 319 318 316 314 311 309 306 303 299 295 290 284 277 271 267 265 262 259 257 255 253 252 251 250 249 248 247 248 248 248 247 246 245 245 244 244 244 244 244 244 244 245 245 246 247 248 248 248 248 249 249 250 251 252 252 253 253 254 254 255 255 256 257 258 259 260 261 262 263 264 266 267 268 269
327 327 328 327 327 327 326 325 324 323 323 322 320 319 317 315 312 309 306 303 300 297 292 286 279 272 268 265 262 259 257 256 254 252 251 250 249 248 247 247 248 248 248 247 246 245 245 245 245 245 245 245 245 246 246 247 248 249 249 250 250 251 251 252 252 253 253 254 255 255 256 257 257 258 259 260 261 262 263 264 265 266 267 268 269
328 329 329 330 330 329 329 329 328 327 326 325 324 322 321 319 317 315 311 308 304 301 297 293 287 281 275 270 266 262 259 258 256 255 253 251 250 249 248 247 247 247 248 248 247 246 246 245 245 245 246 246 246 246 247 247 248 249 249 250 251 252 252 253 253 254 254 255 256 256 257 258 258 259 260 261 262 263 264 265 266 267 268 269 270
329 330 331 331 332 332 332 331 331 330 329 328 326 325 324 322 321 319 316 312 308 304 301 297 293 288 283 277 271 267 263 260 258 257 256 253 251 250 249 248 248 247 247 248 248 247 247 246 246 246 246 246 247 247 247 248 248 249 249 250 251 252 253 253 254 255 255 256 256 257 258 259 259 260 261 262 263 264 265 265 266 267 268 269 270
331 331 332 333 333 334 334 334 333 332 332 331 329 328 326 325 323 322 319 316 312 308 304 300 296 293 289 283 278 273 268 264 261 259 258 257 255 252 251 249 249 248 248 247 248 248 248 248 247 247 247 247 247 248 248 248 249 249 250 250 251 252 252 253 254 255 255 256 257 258 258 259 260 261 261 262 263 264 265 266 267 268 269 270 271
332 333 333 334 335 335 336 336 335 335 334 333 332 330 329 327 325 323 321 319 316 312 307 303 299 296 292 288 284 279 274 269 265 262 260 259 258 256 254 252 251 250 249 248 248 248 248 248 248 248 248 248 248 248 248 249 249 250 250 251 251 252 252 253 254 255 256 256 257 258 259 259 260 261 262 262 263 264 265 266 267 268 269 270 271
334 334 335 335 335 336 337 337 337 337 336 335 334 332 331 329 327 325 324 323 321 317 311 306 302 298 295 292 288 284 279 274 270 266 264 262 261 259 258 256 254 252 251 250 249 249 249 248 248 249 249 249 249 249 249 249 249 250 250 251 251 252 253 254 254 255 256 257 257 258 259 260 260 261 262 263 263 264 265 266 267 268 269 270 271
Height
10632 10631 10630 10629 10628 10627 10626 10626 10625 10624 10623 10621 10619 10617 10615 10613 10610 10608 10605 10604 10605 10607 10612 10617 10622 10628 10632 10634 10637 10637 10635 10637 10642 10646 10648 10651 10653 10653 10652 10650 10649 10650 10650 10651 10653 10655 10657 10660 10661 10661 10661 10662 10663 10661 10660 10661 10662 10662 10660 10658 10658 10655 10647 10646 10649 10649 10648 10648 10648 10648 10647 10646 10645 10645 10645 10644 10644 10642 10640 10639 10639 10638 10637 10636 10635
10625 10625 10624 10623 10622 10621 10620 10620 10619 10618 10617 10615 10613 10610 10608 10606 10604 10602 10599 10598 10599 10602 10607 10611 10615 10619 10623 10626 10630 10630 10628 10631 10636 10639 10642 10646 10648 10648 10647 10646 10645 10645 10646 10647 10648 10650 10653 10656 10657 10656 10656 10658 10658 10656 10656 10656 10656 10656 10654 10652 10652 10650 10645 10643 10644 10645 10645 10645 10644 10643 10643 10642 10641 10641 10640 10640 10638 10637 10636 10635 10634 10633 10633 10632 10630
10618 10618 10618 10617 10616 10615 10614 10614 10613 10612 10611 10609 10607 10605 10602 10599 10597 10596 10594 10593 10593 10596 10601 10606 10608 10610 10612 10616 10622 10622 10621 10625 10631 10634 10637 10641 10643 10643 10643 10643 10642 10641 10641 10642 10644 10646 10649 10652 10653 10652 10651 10653 10654 10652 10651 10652 10651 10650 10648 10646 10646 10645 10642 10640 10639 10639 10641 10641 10640 10640 10638 10637 10637 10637 10636 10635 10633 10632 10631 10630 10629 10629 10628 10627 10626
10612 10611 10611 10611 10610 10609 10608 10608 10607 10606 10605 10603 10602 10599 10597 10594 10591 10590 10589 10588 10588 10591 10596 10601 10604 10606 10607 10610 10613 10615 10616 10620 10625 10629 10633 10636 10637 10637 10638 10638 10638 10637 10637 10638 10640 10643 10646 10649 10649 10648 10646 10648 10649 10648 10648 10648 10647 10645 10643 10641 10640 10639 10637 10635 10633 10633 10635 10637 10637 10636 10633 10632 10633 10633 10631 10630 10628 10627 10626 10625 10625 10624 10623 10623 10622
10605 10605 10605 10604 10603 10603 10602 10602 10601 10600 10599 10598 10596 10595 10592 10589 10587 10585 10584 10583 10583 10586 10591 10596 10600 10602 10604 10606 10608 10610 10612 10616 10620 10624 10628 10630 10631 10632 10633 10634 10634 10633 10634 10634 10636 10639 10642 10645 10645 10643 10642 10642 10643 10643 10644 10644 10643 10642 10639 10637 10635 10634 10633 10630 10628 10628 10630 10631 10632 10632 10630 10628 10629 10629 10627 10625 10623 10622 10621 10620 10620 10619 10619 10619 10618
10598 10598 10598 10597 10597 10597 10596 10596 10595 10594 10594 10593 10591 10590 10587 10585 10582 10580 10580 10579 10579 10582 10586 10592 10595 10597 10600 10603 10605 10607 10609 10612 10614 10618 10622 10626 10627 10629 10630 10629 10629 10630 10630 10631 10633 10635 10637 10640 10641 10639 10638 10637 10636 10638 10640 10640 10640 10638 10636 10635 10632 10630 10629 10627 10625 10623 10623 10624 10626 10627 10627 10626 10625 10625 10623 10621 10620 10618 10617 10616 10615 10615 10615 10615 10615
10591 10591 10591 10590 10590 10590 10590 10589 10589 10588 10588 10588 10587 10585 10583 10580 10578 10576 10575 10575 10575 10578 10582 10587 10590 10592 10596 10599 10601 10603 10604 10606 10608 10611 10617 10620 10622 10624 10625 10624 10625 10626 10626 10627 10628 10630 10631 10634 10635 10635 10634 10634 10632 10632 10634 10635 10635 10634 10634 10631 10626 10625 10626 10624 10621 10619 10618 10619 10620 10622 10623 10623 10622 10622 10620 10618 10616 10615 10614 10613 10612 10612 10612 10612 10612
10585 10584 10583 10583 10583 10583 10583 10583 10582 10582 10582 10582 10582 10580 10578 10576 10573 10572 10572 10571 10572 10575 10579 10582 10585 10588 10592 10594 10596 10598 10598 10599 10602 10605 10609 10612 10615 10619 10619 10618 10619 10621 10621 10622 10623 10625 10626 10628 10629 10630 10631 10631 10629 10628 10629 10630 10630 10629 10629 10625 10619 10620 10623 10621 10619 10617 10616 10616 10617 10617 10619 10619 10619 10618 10617 10615 10614 10612 10611 10611 10610 10610 10610 10610 10610
10578 10577 10576 10576 10576 10576 10576 10575 10576 10576 10576 10577 10577 10576 10574 10571 10569 10568 10568 10568 10569 10571 10575 10577 10580 10583 10585 10588 10590 10592 10592 10593 10595 10598 10601 10605 10610 10612 10612 10611 10612 10614 10615 10617 10619 10620 10621 10622 10624 10625 10625 10626 10625 10625 10625 10625 10625 10624 10622 10619 10616 10616 10618 10617 10616 10615 10614 10614 10613 10614 10615 10616 10615 10614 10613 10612 10611 10610 10609 10609 10609 10608 10607 10607 10607
10570 10570 10569 10569 10568 10568 10568 10568 10569 10569 10570 10571 10571 10570 10569 10566 10564 10563 10563 10564 10565 10568 10570 10572 10573 10575 10577 10580 10583 10584 10584 10586 10587 10590 10593 10597 10600 10602 10603 10604 10604 10607 10609 10611 10613 10615 10615 10617 10618 10619 10619 10619 10620 10620 10620 10620 10620 10619 10617 10615 10614 10613 10612 10612 10612 10611 10611 10610 10610 10610 10611 10611 10610 10610 10610 10609 10609 10608 10607 10607 10606 10605 10605 10604 10604
10563 10562 10562 10562 10561 10561 10561 10561 10561 10562 10563 10564 10564 10565 10564 10562 10559 10558 10559 10560 10561 10563 10565 10566 10567 10569 10570 10572 10575 10576 10577 10578 10580 10582 10585 10588 10591 10592 10593 10594 10596 10600 10603 10605 10607 10609 10610 10611 10612 10612 10612 10613 10613 10614 10614 10614 10614 10613 10612 10611 10611 10609 10607 10608 10608 10608 10607 10607 10607 10607 10607 10606 10605 10606 10606 10606 10605 10604 10604 10604 10603 10602 10601 10601 10600
10555 10555 10555 10555 10554 10554 10554 10553 10553 10554 10554 10556 10557 10558 10558 10557 10554 10553 10553 10555 10556 10558 10559 10560 10561 10562 10564 10565 10566 10568 10570 10571 10572 10574 10577 10581 10583 10582 10583 10587 10591 10594 10597 10599 10600 10602 10603 10604 10605 10605 10606 10606 10607 10608 10608 10608 10608 10608 10607 10607 10607 10605 10604 10604 10604 10604 10603 10603 10603 10602 10602 10601 10601 10601 10601 10601 10601 10600 10600 10600 10599 10599 10598 10597 10597
10547 10547 10547 10547 10547 10547 10546 10546 10546 10546 10546 10547 10548 10550 10551 10551 10549 10547 10547 10549 10551 10552 10553 10553 10554 10555 10557 10558 10558 10560 10563 10564 10565 10568 10572 10576 10577 10576 10579 10584 10587 10588 10590 10592 10594 10595 10596 10596 10597 10597 10598 10599 10600 10601 10601 10602 10602 10603 10602 10602 10602 10601 10599 10599 10600 10600 10600 10599 10598 10598 10597 10596 10596 10596 10596 10596 10596 10596 10596 10596 10595 10594 10594 10593 10593
10539 10539 10539 10539 10539 10539 10538 10538 10538 10537 10538 10538 10538 10540 10542 10544 10544 10542 10541 10543 10544 10545 10546 10546 10547 10548 10549 10551 10551 10552 10555 10556 10558 10561 10565 10569 10570 10571 10573 10577 10580 10582 10584 10586 10588 10589 10589 10589 10589 10589 10590 10592 10593 10593 10594 10595 10596 10597 10597 10597 10597 10596 10595 10595 10595 10596 10595 10594 10593 10592 10591 10591 10592 10592 10592 10591 10591 10591 10591 10591 10590 10589 10588 10588 10588
10531 10531 10531 10530 10530 10530 10530 10530 10529 10529 10529 10529 10530 10531 10533 10535 10537 10536 10535 10535 10537 10538 10539 10539 10540 10540 10542 10543 10544 10545 10546 10548 10550 10553 10556 10559 10561 10564 10567 10570 10573 10574 10576 10578 10581 10583 10582 10581 10581 10582 10584 10585 10585 10586 10587 10588 10589 10590 10591 10591 10591 10591 10590 10590 10590 10591 10590 10589 10588 10586 10585 10586 10588 10588 10587 10586 10586 10585 10584 10585 10584 10583 10583 10582 10582
10523 10522 10522 10521 10521 10520 10520 10520 10521 10521 10521 10521 10521 10522 10523 10526 10528 10529 10528 10528 10530 10531 10531 10532 10532 10533 10534 10535 10537 10538 10538 10540 10543 10545 10547 10550 10553 10556 10559 10563 10565 10567 10569 10570 10572 10573 10573 10572 10573 10575 10578 10578 10576 10578 10580 10581 10582 10584 10585 10585 10585 10585 10585 10585 10584 10585 10585 10585 10583 10580 10579 10581 10583 10583 10583 10581 10580 10579 10578 10579 10579 10577 10577 10577 10577
10514 10513 10513 10512 10511 10511 10510 10511 10511 10511 10511 10512 10512 10513 10514 10516 10519 10521 10520 10520 10521 10523 10524 10524 10524 10525 10526 10527 10529 10530 10531 10533 10535 10537 10539 10542 10544 10547 10551 10555 10558 10559 10561 10563 10563 10563 10562 10562 10564 10568 10571 10568 10566 10569 10572 10573 10575 10577 10577 10578 10579 10579 10579 10579 10578 10578 10578 10579 10578 10576 10575 10575 10576 10577 10576 10574 10573 10572 10571 10572 10572 10570 10571 10572 10572
10504 10503 10503 10502 10501 10501 10501 10501 10501 10501 10501 10502 10502 10503 10505 10506 10508 10511 10512 10511 10512 10514 10515 10516 10516 10517 10518 10518 10520 10522 10524 10525 10527 10529 10531 10533 10535 10538 10542 10546 10549 10551 10554 10555 10556 10555 10553 10553 10557 10561 10562 10559 10559 10562 10565 10566 10568 10569 10570 10571 10572 10572 10573 10572 10572 10572 10571 10571 10572 10571 10570 10569 10568 10569 10569 10567 10567 10566 10564 10565 10564 10563 10564 10565 10565
10494 10493 10493 10492 10491 10490 10490 10491 10491 10491 10491 10491 10492 10493 10494 10496 10498 10500 10502 10502 10503 10504 10506 10507 10508 10509 10510 10510 10511 10513 10515 10517 10519 10520 10522 10524 10526 10529 10532 10536 10540 10543 10545 10546 10548 10547 10544 10545 10549 10551 10551 10551 10553 10556 10557 10558 10560 10561 10562 10563 10564 10564 10565 10566 10566 10565 10564 10564 10564 10564 10563 10562 10561 10561 10561 10561 10560 10559 10557 10556 10556 10556 10556 10557 10557
10483 10483 10482 10482 10481 10480 10479 10480 10480 10480 10480 10480 10480 10481 10483 10484 10487 10489 10491 10493 10493 10494 10496 10498 10499 10500 10501 10502 10503 10504 10506 10507 10509 10511 10513 10516 10518 10520 10522 10526 10529 10533 10535 10537 10540 10539 10535 10535 10540 10542 10542 10544 10546 10547 10548 10550 10552 10552 10554 10555 10555 10556 10558 10558 10558 10558 10558 10557 10557 10556 10556 10555 10554 10554 10555 10554 10554 10552 10550 10549 10548 10548 10549 10549 10550
10473 10472 10472 10472 10471 10469 10468 10468 10468 10468 10468 10468 10469 10469 10470 10472 10474 10477 10480 10482 10483 10483 10485 10487 10489 10490 10492 10493 10494 10495 10496 10497 10499 10502 10504 10507 10509 10511 10513 10515 10519 10523 10525 10528 10531 10531 10527 10528 10533 10535 10535 10537 10539 10539 10540 10541 10543 10544 10545 10546 10547 10548 10549 10550 10550 10550 10550 10549 10549 10548 10548 10548 10547 10547 10547 10547 10547 10546 10545 10543 10542 10541 10541 10542 10542
10462 10461 10461 10460 10460 10458 10457 10456 10456 10456 10456 10456 10456 10457 10458 10460 10462 10464 10467 10470 10472 10473 10474 10476 10478 10480 10482 10483 10484 10485 10487 10488 10490 10492 10494 10497 10500 10502 10504 10506 10509 10512 10515 10518 10521 10522 10520 10522 10526 10527 10527 10529 10531 10531 10531 10532 10535 10535 10535 10536 10539 10540 10540 10540 10541 10542 10541 10541 10541 10541 10540 10540 10540 10539 10539 10539 10539 10539 10538 10537 10536 10535 10534 10534 10534
10451 10450 10449 10449 10448 10447 10446 10444 10443 10443 10443 10444 10444 10445 10445 10447 10449 10451 10454 10457 10460 10462 10463 10464 10467 10469 10471 10473 10474 10476 10477 10478 10480 10482 10484 10487 10490 10492 10495 10497 10499 10501 10504 10507 10510 10513 10513 10515 10517 10517 10519 10521 10522 10522 10522 10523 10525 10526 10526 10528 10530 10530 10530 10531 10532 10533 10533 10533 10532 10532 10532 10532 10531 10531 10531 10531 10531 10531 10531 10530 10529 10528 10527 10527 10526
10439 10438 10437 10436 10436 10435 10434 10432 10431 10431 10431 10432 10432 10432 10433 10434 10435 10437 10440 10443 10447 10449 10451 10453 10454 10457 10459 10461 10463 10465 10466 10468 10469 10472 10474 10477 10480 10482 10485 10488 10490 10491 10494 10496 10500 10503 10505 10506 10506 10506 10510 10512 10512 10511 10512 10514 10515 10516 10517 10519 10521 10521 10521 10522 10523 10523 10523 10524 10524 10524 10524 10523 10523 10522 10522 10522 10522 10522 10522 10522 10521 10520 10520 10519 10518
10426 10425 10424 10423 10423 10422 10422 10421 10420 10418 10419 10419 10420 10420 10420 10420 10422 10423 10426 10428 10432 10435 10438 10440 10442 10444 10447 10449 10452 10454 10455 10457 10459 10461 10464 10466 10469 10472 10475 10478 10480 10482 10484 10486 10490 10492 10494 10495 10495 10496 10499 10502 10502 10501 10502 10504 10505 10507 10509 10510 10511 10511 10512 10512 10513 10514 10514 10515 10515 10515 10514 10514 10514 10513 10513 10513 10512 10512 10512 10513 10512 10512 10512 10511 10510
10414 10413 10412 10411 10410 10409 10409 10409 10408 10406 10405 10406 10407 10407 10407 10407 10407 10409 10411 10413 10416 10420 10424 10427 10429 10431 10434 10437 10439 10442 10444 10446 10448 10450 10452 10455 10458 10461 10464 10467 10470 10472 10474 10476 10480 10482 10483 10484 10486 10487 10489 10492 10493 10493 10492 10494 10495 10497 10500 10502 10502 10502 10503 10503 10503 10504 10505 10505 10505 10505 10505 10505 10504 10504 10503 10503 10503 10503 10503 10503 10503 10503 10503 10502 10501
10402 10401 10400 10398 10398 10397 10395 10395 10395 10394 10392 10392 10393 10394 10394 10394 10394 10395 10396 10399 10401 10405 10408 10412 10415 10418 10420 10423 10427 10430 10432 10435 10437 10438 10441 10443 10447 10450 10453 10456 10458 10461 10463 10466 10469 10471 10472 10473 10475 10477 10479 10482 10484 10483 10483 10484 10485 10487 10489 10491 10493 10493 10493 10494 10494 10495 10495 10495 10495 10495 10495 10495 10494 10493 10493 10493 10493 10493 10493 10493 10493 10493 10493 10492 10491
10390 10389 10388 10386 10385 10384 10383 10382 10382 10382 10380 10379 10378 10379 10381 10381 10381 10381 10382 10384 10387 10390 10393 10397 10400 10403 10406 10409 10413 10416 10420 10423 10425 10427 10429 10432 10435 10438 10441 10444 10447 10450 10453 10455 10457 10460 10461 10463 10465 10466 10469 10471 10473 10474 10474 10474 10476 10477 10478 10480 10482 10483 10484 10485 10485 10486 10485 10485 10485 10485 10485 10485 10484 10483 10482 10482 10482 10483 10482 10482 10482 10483 10482 10481 10480
10380 10377 10376 10375 10373 10372 10371 10370 10370 10369 10369 10367 10365 10365 10367 10368 10369 10369 10369 10370 10372 10375 10378 10382 10385 10389 10392 10395 10398 10402 10406 10410 10413 10416 10418 10421 10423 10426 10429 10432 10435 10438 10441 10444 10446 10448 10450 10453 10454 10456 10458 10460 10463 10464 10464 10465 10466 10468 10469 10470 10471 10472 10473 10475 10475 10476 10476 10475 10476 10476 10476 10475 10474 10474 10474 10473 10472 10472 10472 10472 10472 10472 10472 10471 10470
10370 10368 10365 10364 10362 10360 10359 10358 10358 10357 10357 10356 10354 10353 10353 10354 10356 10357 10357 10358 10359 10361 10363 10366 10370 10374 10378 10381 10384 10387 10391 10395 10399 10402 10406 10408 10411 10414 10417 10420 10423 10426 10429 10432 10435 10437 10439 10442 10444 10445 10447 10449 10452 10453 10454 10455 10456 10457 10459 10460 10461 10462 10463 10465 10465 10466 10466 10467 10467 10467 10467 10466 10465 10466 10466 10465 10463 10462 10462 10462 10462 10461 10461 10461 10460
10361 10358 10356 10354 10352 10350 10348 10347 10346 10346 10345 10345 10344 10343 10342 10341 10342 10343 10345 10345 10346 10348 10349 10352 10355 10360 10364 10367 10370 10372 10375 10379 10383 10388 10391 10395 10398 10402 10405 10408 10411 10414 10416 10420 10423 10426 10428 10430 10432 10434 10436 10438 10440 10442 10444 10445 10446 10447 10449 10450 10452 10453 10454 10455 10455 10456 10457 10457 10457 10458 10457 10457 10456 10457 10458 10457 10456 10454 10452 10451 10451 10450 10450 10449 10449
10352 10350 10347 10345 10343 10341 10339 10337 10336 10335 10334 10333 10333 10333 10332 10331 10330 10330 10331 10333 10334 10335 10336 10338 10341 10345 10349 10353 10356 10359 10361 10365 10368 10372 10376 10380 10384 10388 10391 10394 10398 10401 10404 10407 10410 10414 10416 10419 10421 10423 10426 10428 10429 10431 10433 10434 10436 10437 10438 10440 10442 10443 10444 10445 10446 10446 10447 10448 10448 10448 10447 10447 10447 10447 10448 10448 10447 10446 10444 10443 10441 10440 10439 10438 10438
10344 10342 10339 10337 10334 10332 10329 10327 10325 10325 10324 10323 10322 10321 10321 10321 10320 10320 10320 10321 10322 10323 10324 10325 10328 10330 10334 10337 10342 10345 10348 10351 10354 10358 10362 10365 10370 10374 10377 10381 10384 10388 10392 10395 10398 10401 10404 10407 10410 10412 10415 10417 10419 10420 10422 10424 10425 10426 10428 10429 10431 10432 10434 10435 10436 10436 10437 10438 10437 10437 10437 10437 10437 10437 10437 10438 10437 10436 10435 10433 10432 10430 10429 10428 10427
10336 10334 10332 10329 10326 10323 10320 10318 10316 10315 10314 10312 10311 10311 10310 10310 10310 10310 10310 10310 10311 10312 10312 10314 10315 10318 10320 10323 10326 10331 10335 10338 10342 10345 10348 10351 10355 10359 10363 10366 10370 10374 10378 10381 10385 10388 10391 10394 10397 10400 10403 10405 10407 10409 10411 10413 10414 10416 10417 10418 10420 10421 10423 10424 10425 10426 10426 10427 10427 10427 10426 10426 10427 10427 10427 10427 10426 10426 10424 10423 10421 10420 10419 10418 10417
10329 10326 10324 10321 10319 10316 10313 10310 10307 10305 10304 10302 10301 10300 10300 10300 10300 10301 10301 10300 10300 10301 10301 10302 10304 10306 10308 10310 10312 10316 10320 10324 10328 10332 10335 10338 10341 10345 10348 10352 10356 10359 10363 10367 10371 10375 10378 10381 10384 10387 10390 10393 10396 10398 10400 10402 10403 10405 10407 10408 10409 10410 10411 10413 10414 10414 10415 10416 10417 10416 10416 10416 10416 10416 10417 10416 10416 10415 10414 10412 10411 10410 10409 10408 10407
10322 10319 10317 10314 10312 10309 10306 10303 10300 10298 10296 10294 10292 10290 10290 10290 10290 10291 10291 10290 10290 10290 10291 10291 10292 10293 10296 10298 10300 10302 10305 10309 10313 10317 10321 10324 10328 10331 10334 10338 10341 10345 10349 10352 10356 10360 10364 10367 10371 10374 10377 10380 10383 10386 10388 10390 10392 10394 10395 10397 10398 10399 10400 10401 10402 10403 10404 10404 10405 10405 10405 10405 10405 10405 10406 10406 10405 10404 10403 10402 10400 10399 10398 10398 10397
10315 10312 10309 10306 10304 10302 10299 10297 10294 10291 10288 10286 10284 10282 10281 10280 10280 10280 10280 10280 10280 10280 10280 10280 10281 10282 10284 10286 10288 10290 10292 10295 10299 10302 10306 10310 10313 10317 10321 10324 10327 10331 10335 10339 10343 10347 10350 10353 10357 10360 10364 10367 10370 10373 10375 10378 10380 10382 10383 10385 10387 10388 10389 10390 10391 10391 10392 10392 10393 10394 10394 10394 10394 10394 10394 10394 10393 10393 10392 10391 10390 10389 10387 10386 10385
10309 10306 10303 10299 10296 10293 10291 10289 10287 10285 10282 10279 10277 10275 10273 10272 10271 10270 10271 10271 10270 10270 10270 10271 10271 10271 10272 10274 10276 10278 10280 10283 10285 10288 10291 10295 10299 10303 10307 10310 10313 10317 10321 10325 10329 10333 10336 10339 10343 10346 10350 10353 10356 10360 10362 10365 10367 10369 10371 10372 10374 10376 10378 10379 10380 10380 10380 10381 10381 10382 10382 10382 10382 10382 10382 10382 10381 10381 10380 10379 10379 10377 10376 10374 10373
10304 10300 10297 10294 10290 10287 10283 10281 10279 10277 10275 10273 10270 10268 10266 10264 10263 10262 10261 10261 10261 10261 10261 10261 10261 10262 10262 10263 10264 10267 10269 10271 10273 10275 10278 10281 10285 10289 10293 10296 10299 10302 10306 10310 10315 10319 10322 10326 10329 10332 10336 10339 10343 10346 10349 10351 10353 10356 10358 10360 10361 10363 10365 10366 10368 10369 10370 10370 10370 10370 10370 10370 10370 10370 10370 10369 10369 10369 10368 10368 10367 10366 10364 10363 10361
10299 10295 10291 10288 10285 10281 10278 10274 10272 10269 10267 10265 10263 10261 10259 10257 10256 10254 10253 10252 10252 10252 10252 10252 10252 10253 10253 10254 10254 10255 10258 10260 10262 10263 10265 10268 10271 10275 10278 10282 10285 10288 10292 10296 10300 10304 10308 10312 10315 10318 10322 10325 10329 10332 10335 10338 10340 10342 10344 10346 10348 10350 10351 10353 10355 10356 10357 10358 10359 10359 10358 10358 10358 10357 10357 10357 10357 10356 10356 10355 10354 10353 10352 10351 10349
10294 10290 10286 10283 10279 10276 10273 10269 10266 10263 10260 10258 10256 10254 10252 10250 10248 10247 10246 10245 10244 10243 10243 10243 10243 10243 10244 10245 10245 10246 10247 10249 10251 10253 10254 10256 10259 10262 10264 10268 10271 10275 10279 10283 10286 10290 10294 10298 10301 10304 10308 10312 10315 10318 10321 10324 10326 10328 10330 10332 10334 10336 10338 10340 10341 10343 10344 10345 10346 10346 10347 10347 10347 10346 10345 10345 10344 10344 10343 10343 10341 10340 10339 10338 10337
10290 10286 10282 10279 10275 10271 10267 10264 10260 10257 10254 10252 10249 10247 10245 10243 10241 10239 10238 10237 10237 10236 10235 10235 10235 10234 10235 10235 10236 10236 10237 10239 10241 10242 10244 10245 10247 10250 10252 10255 10258 10261 10266 10269 10273 10276 10280 10283 10287 10290 10293 10297 10300 10304 10307 10310 10312 10314 10316 10318 10320 10322 10324 10326 10328 10329 10330 10331 10332 10333 10334 10335 10335 10335 10334 10334 10333 10332 10332 10330 10329 10328 10327 10326 10325
10286 10282 10278 10274 10270 10266 10262 10259 10255 10252 10249 10246 10243 10241 10239 10237 10234 10232 10231 10230 10229 10228 10228 10227 10226 10226 10226 10226 10226 10227 10228 10229 10231 10232 10234 10235 10237 10239 10241 10243 10246 10249 10253 10256 10260 10263 10266 10270 10273 10276 10279 10282 10285 10289 10292 10295 10298 10300 10303 10304 10306 10308 10310 10312 10314 10315 10316 10318 10319 10320 10321 10322 10322 10322 10322 10322 10321 10321 10320 10319 10318 10317 10315 10314 10312
10283 10279 10274 10270 10266 10263 10258 10255 10251 10247 10244 10240 10238 10235 10232 10230 10228 10225 10224 10222 10221 10221 10221 10220 10219 10218 10217 10217 10218 10218 10219 10220 10221 10222 10224 10226 10227 10228 10230 10232 10235 10238 10240 10244 10247 10250 10253 10256 10259 10262 10265 10268 10271 10274 10277 10280 10283 10286 10288 10290 10292 10294 10296 10298 10299 10301 10302 10304 10305 10306 10307 10308 10309 10309 10309 10309 10309 10308 10308 10307 10306 10305 10303 10302 10301
10279 10275 10271 10267 10263 10259 10255 10251 10247 10243 10240 10236 10233 10230 10227 10225 10222 10219 10217 10215 10214 10213 10213 10213 10212 10210 10209 10209 10209 10210 10210 10211 10212 10213 10214 10216 10217 10219 10220 10222 10224 10226 10229 10232 10235 10238 10241 10243 10246 10249 10252 10255 10258 10260 10263 10266 10269 10271 10273 10276 10278 10280 10282 10284 10285 10287 10288 10290 10291 10292 10293 10294 10295 10295 10296 10296 10295 10295 10295 10294 10293 10292 10291 10290 10288
10276 10272 10268 10263 10259 10255 10251 10247 10243 10239 10235 10232 10229 10225 10222 10219 10217 10214 10212 10209 10208 10207 10206 10205 10205 10204 10202 10201 10201 10202 10202 10202 10203 10204 10205 10206 10208 10209 10211 10212 10214 10216 10218 10221 10223 10226 10228 10231 10234 10236 10239 10242 10244 10247 10250 10253 10255 10257 10259 10262 10264 10265 10267 10269 10271 10273 10274 10276 10277 10278 10280 10281 10281 10282 10282 10282 10282 10282 10281 10281 10280 10279 10278 10277 10275
10272 10268 10264 10260 10256 10252 10247 10243 10239 10235 10231 10228 10224 10221 10218 10215 10212 10210 10207 10204 10202 10200 10199 10198 10197 10197 10196 10195 10194 10194 10195 10194 10194 10195 10196 10197 10198 10200 10201 10203 10204 10206 10208 10210 10212 10214 10217 10219 10221 10224 10226 10229 10231 10234 10237 10240 10242 10244 10246 10248 10250 10252 10253 10255 10257 10259 10260 10262 10263 10264 10266 10267 10267 10268 10268 10269 10268 10268 10268 10267 10267 10266 10265 10263 10262
10269 10265 10261 10257 10253 10249 10245 10240 10236 10232 10228 10224 10220 10217 10214 10211 10208 10205 10203 10200 10197 10195 10193 10192 10190 10190 10189 10188 10187 10187 10187 10187 10187 10186 10187 10188 10189 10190 10192 10193 10195 10196 10198 10199 10201 10203 10205 10208 10210 10212 10215 10217 10219 10221 10224 10227 10229 10232 10233 10235 10237 10239 10240 10242 10243 10245 10246 10248 10249 10250 10252 10252 10253 10254 10255 10254 10254 10254 10254 10254 10253 10252 10251 10250 10248
10265 10261 10258 10254 10250 10246 10242 10237 10233 10229 10225 10221 10217 10213 10210 10207 10204 10201 10198 10196 10193 10190 10188 10186 10185 10183 10183 10182 10181 10180 10180 10180 10180 10179 10179 10179 10180 10181 10182 10184 10185 10186 10188 10189 10191 10193 10195 10197 10199 10201 10203 10205 10207 10209 10212 10214 10216 10218 10220 10222 10224 10226 10227 10228 10230 10231 10233 10234 10235 10236 10237 10238 10239 10240 10240 10240 10240 10240 10240 10240 10239 10238 10237 10236 10235
10261 10257 10254 10250 10246 10242 10238 10234 10230 10225 10221 10218 10214 10210 10206 10203 10200 10197 10194 10191 10188 10186 10183 10181 10179 10178 10177 10176 10175 10174 10174 10173 10173 10173 10172 10171 10172 10172 10173 10175 10176 10177 10178 10180 10181 10183 10185 10186 10188 10190 10192 10194 10196 10198 10200 10202 10203 10205 10207 10209 10211 10213 10214 10215 10217 10218 10219 10221 10222 10223 10224 10225 10226 10226 10226 10227 10227 10226 10226 10226 10225 10224 10223 10223 10222
10258 10254 10250 10246 10243 10239 10235 10231 10227 10222 10218 10214 10210 10207 10203 10200 10196 10193 10190 10186 10184 10181 10179 10176 10174 10173 10171 10170 10169 10168 10168 10167 10167 10166 10166 10165 10164 10165 10165 10166 10167 10168 10169 10171 10172 10173 10175 10177 10178 10180 10181 10183 10185 10186 10188 10190 10191 10193 10195 10197 10199 10200 10201 10202 10204 10205 10206 10208 10209 10210 10211 10211 10212 10212 10213 10213 10213 10213 10212 10212 10211 10211 10210 10209 10208